Location: McFarlands Corners
(41.4117°N, 81.3382°W)
Time: 06:14:52
(UTC+00:00)

Tiros 1 - Pass Details

Date: 21 February 2026
Orbit: 618 x 649 km, 48.4° (Epoch: 5 March)

Event Time Altitude Azimuth Distance (km) Brightness Sun altitude
Rises 14:14:53 0° 266° (W) 2,914 10.1 20.1°
Reaches altitude 10° 14:17:19 10° 274° (W) 2,003 9.3 20.5°
Maximum altitude 14:21:42 42° 345° (NNW) 896 7.8 21.2°
Drops below altitude 10° 14:26:03 10° 57° (ENE) 1,990 10.0 21.8°
Sets 14:28:28 0° 65° (ENE) 2,894 10.8 22.2°
